Location: Cuzcurrita-R�o Tir�n
(42.5415°N, 2.9642°W)
Time: 01:41:53
(UTC+00:00)

DELTA 2 R/B (1) - Pass Details

Date: 17 January 2021
Orbit: 790 x 802 km, 39.6° (Epoch: 08 March)

Event Time Altitude Azimuth Distance (km) Brightness Sun altitude
Rises 18:21:03 0° 275° (W) 3,289 8.2 -13.6°
Reaches altitude 10° 18:23:36 10° 270° (W) 2,356 7.3 -14.0°
Maximum altitude 18:28:56 49° 197° (SSW) 1,016 4.3 -15.0°
Enters shadow 18:33:55 12° 124° (SE) 2,231 5.5 -15.9°
